MRK1434 SAAR-SANU

Flight info

Callsign MRK1434
Flight time N/A
Altitude 36000
Route GEDUK DCT MJZ UT653 PAMAL DCT ISUSA
Aircraft B737/M-SDE2E3FGHIRWXY/LB1

Departure

Time 2026-04-22 20:49
Airport Rosario Islas Malvinas International Airport (SAAR)

Arrival

Time N/A
Airport Domingo Faustino Sarmiento Airport (SANU)
Time Latitude Longitude Altitude Speed Heading
2026-04-22 20:12 -32.91453 -60.78057 94 ft 0 kts 105°
2026-04-22 20:38 -32.91449 -60.78077 94 ft 4 kts 99°
2026-04-22 20:38 -32.91446 -60.78109 94 ft 4 kts 87°
2026-04-22 20:38 -32.91450 -60.78140 94 ft 4 kts 71°
2026-04-22 20:39 -32.91462 -60.78168 94 ft 4 kts 40°
2026-04-22 20:39 -32.91472 -60.78176 97 ft 0 kts 20°
2026-04-22 20:42 -32.91471 -60.78176 97 ft 1 kts 20°
2026-04-22 20:42 -32.91429 -60.78165 98 ft 11 kts 355°
2026-04-22 20:42 -32.91362 -60.78215 96 ft 12 kts 321°
2026-04-22 20:42 -32.91299 -60.78276 95 ft 12 kts 321°
2026-04-22 20:43 -32.91237 -60.78335 95 ft 11 kts 321°
2026-04-22 20:43 -32.91177 -60.78393 95 ft 11 kts 320°
2026-04-22 20:43 -32.91118 -60.78448 95 ft 11 kts 326°
2026-04-22 20:43 -32.91056 -60.78493 97 ft 10 kts 330°
2026-04-22 20:44 -32.90991 -60.78527 98 ft 10 kts 341°
2026-04-22 20:44 -32.90926 -60.78552 98 ft 10 kts 341°
2026-04-22 20:44 -32.90850 -60.78573 100 ft 17 kts 357°
2026-04-22 20:44 -32.90712 -60.78545 97 ft 22 kts 13°
2026-04-22 20:45 -32.90566 -60.78504 97 ft 21 kts 12°
2026-04-22 20:45 -32.90423 -60.78472 96 ft 21 kts 10°
2026-04-22 20:45 -32.90282 -60.78447 95 ft 20 kts
2026-04-22 20:45 -32.90147 -60.78420 95 ft 19 kts 11°
2026-04-22 20:46 -32.89891 -60.78355 95 ft 18 kts 11°
2026-04-22 20:46 -32.89769 -60.78323 97 ft 18 kts 14°
2026-04-22 20:46 -32.89652 -60.78290 96 ft 17 kts 13°
2026-04-22 20:47 -32.89538 -60.78263 98 ft 17 kts 10°
2026-04-22 20:47 -32.89403 -60.78234 98 ft 21 kts 11°
2026-04-22 20:47 -32.89252 -60.78203 97 ft 22 kts
2026-04-22 20:47 -32.89117 -60.78148 96 ft 18 kts 36°
2026-04-22 20:48 -32.89054 -60.78171 96 ft 11 kts 227°
2026-04-22 20:48 -32.89093 -60.78183 96 ft 0 kts 190°
2026-04-22 20:48 -32.89095 -60.78184 96 ft 0 kts 190°
2026-04-22 20:48 -32.89096 -60.78184 96 ft 0 kts 190°
2026-04-22 20:49 -32.89132 -60.78192 96 ft 30 kts 190°
2026-04-22 20:49 -32.89623 -60.78304 98 ft 110 kts 191°
2026-04-22 20:49 -32.90561 -60.78505 243 ft 155 kts 190°
2026-04-22 20:49 -32.91564 -60.78725 1210 ft 136 kts 193°
2026-04-22 20:50 -32.92443 -60.78942 2115 ft 126 kts 193°
2026-04-22 20:50 -32.93301 -60.79138 2821 ft 125 kts 192°
2026-04-22 20:50 -32.94187 -60.79346 3359 ft 142 kts 191°
2026-04-22 20:50 -32.95274 -60.79596 3678 ft 176 kts 191°
2026-04-22 20:51 -32.96590 -60.79895 3958 ft 207 kts 191°
2026-04-22 20:51 -32.98071 -60.80229 4370 ft 222 kts 191°
2026-04-22 20:51 -32.99612 -60.80575 5088 ft 228 kts 191°
2026-04-22 20:51 -33.01121 -60.81132 6003 ft 229 kts 212°
2026-04-22 20:52 -33.02179 -60.82528 6945 ft 233 kts 242°
2026-04-22 20:52 -33.02528 -60.84429 7810 ft 242 kts 270°
2026-04-22 20:52 -33.02131 -60.86397 8749 ft 247 kts 289°
2026-04-22 20:52 -33.01430 -60.88290 9657 ft 252 kts 292°
2026-04-22 20:53 -33.00676 -60.90169 10664 ft 250 kts 294°
2026-04-22 20:53 -32.99931 -60.92022 11743 ft 246 kts 294°
2026-04-22 20:53 -32.99203 -60.93853 12788 ft 247 kts 295°
2026-04-22 20:53 -32.98445 -60.95778 13269 ft 270 kts 295°
2026-04-22 20:54 -32.97607 -60.97927 13498 ft 301 kts 295°
2026-04-22 20:54 -32.96726 -61.00201 13698 ft 327 kts 295°
2026-04-22 20:54 -32.95736 -61.02759 13970 ft 350 kts 295°
2026-04-22 20:54 -32.94713 -61.05398 14576 ft 359 kts 295°
2026-04-22 20:55 -32.93621 -61.08071 15507 ft 359 kts 296°
2026-04-22 20:55 -32.92496 -61.10732 16385 ft 361 kts 296°
2026-04-22 20:55 -32.91356 -61.13407 17196 ft 364 kts 297°
2026-04-22 20:55 -32.90209 -61.16102 17983 ft 366 kts 297°
2026-04-22 20:56 -32.89055 -61.18822 18724 ft 369 kts 297°
2026-04-22 20:56 -32.87895 -61.21566 19442 ft 372 kts 297°
2026-04-22 20:56 -32.86729 -61.24329 20139 ft 375 kts 296°
2026-04-22 20:56 -32.85553 -61.27114 20832 ft 378 kts 296°
2026-04-22 20:57 -32.84371 -61.29915 21507 ft 380 kts 297°
2026-04-22 20:57 -32.83180 -61.32730 22160 ft 382 kts 296°
2026-04-22 20:57 -32.81982 -61.35568 22709 ft 386 kts 296°
2026-04-22 20:57 -32.81095 -61.38586 23222 ft 391 kts 283°
2026-04-22 20:58 -32.80640 -61.41782 23814 ft 392 kts 282°
2026-04-22 20:58 -32.80163 -61.44983 24350 ft 394 kts 282°
2026-04-22 20:58 -32.79662 -61.48193 24889 ft 395 kts 282°
2026-04-22 20:58 -32.79151 -61.51408 25412 ft 396 kts 282°
2026-04-22 20:59 -32.78635 -61.54623 25942 ft 397 kts 282°
2026-04-22 20:59 -32.78123 -61.57805 26421 ft 397 kts 282°
2026-04-22 20:59 -32.77596 -61.61073 26931 ft 397 kts 282°
2026-04-22 20:59 -32.77082 -61.64253 27380 ft 398 kts 282°
2026-04-22 21:00 -32.76560 -61.67481 27883 ft 397 kts 282°
2026-04-22 21:00 -32.76041 -61.70690 28446 ft 394 kts 282°
2026-04-22 21:00 -32.75528 -61.73864 29203 ft 386 kts 282°
2026-04-22 21:00 -32.75024 -61.76969 29991 ft 379 kts 282°
2026-04-22 21:01 -32.74528 -61.80011 30741 ft 373 kts 282°
2026-04-22 21:01 -32.74040 -61.83008 31441 ft 367 kts 282°
2026-04-22 21:01 -32.73559 -61.85969 31999 ft 364 kts 282°
2026-04-22 21:01 -32.73085 -61.88873 32136 ft 354 kts 282°
2026-04-22 21:02 -32.72137 -61.94648 32168 ft 360 kts 282°
2026-04-22 21:02 -32.71193 -62.00388 32177 ft 367 kts 282°
2026-04-22 21:03 -32.70194 -62.06439 32171 ft 379 kts 282°
2026-04-22 21:03 -32.69174 -62.12632 32166 ft 383 kts 282°
2026-04-22 21:04 -32.68129 -62.18826 32167 ft 382 kts 283°
2026-04-22 21:04 -32.67013 -62.24991 32167 ft 382 kts 283°
2026-04-22 21:05 -32.65886 -62.31155 32167 ft 382 kts 283°
2026-04-22 21:05 -32.64758 -62.37323 32165 ft 382 kts 283°
2026-04-22 21:06 -32.63638 -62.43473 32165 ft 381 kts 283°
2026-04-22 21:06 -32.62517 -62.49625 32163 ft 381 kts 283°
2026-04-22 21:07 -32.61442 -62.55764 32173 ft 381 kts 282°
2026-04-22 21:07 -32.60313 -62.61897 32183 ft 383 kts 284°
2026-04-22 21:08 -32.59138 -62.68065 32191 ft 383 kts 283°
2026-04-22 21:08 -32.58001 -62.74242 32176 ft 385 kts 283°
2026-04-22 21:09 -32.56854 -62.80431 32190 ft 384 kts 284°
2026-04-22 21:09 -32.55672 -62.86552 32185 ft 380 kts 283°
2026-04-22 21:10 -32.54526 -62.92659 32194 ft 380 kts 283°
2026-04-22 21:10 -32.53380 -62.98809 32193 ft 384 kts 283°
2026-04-22 21:11 -32.52270 -63.04859 32190 ft 381 kts 283°
2026-04-22 21:11 -32.51149 -63.10981 32184 ft 380 kts 283°
2026-04-22 21:12 -32.50039 -63.17039 32180 ft 377 kts 284°
2026-04-22 21:12 -32.48814 -63.23079 32181 ft 378 kts 284°
2026-04-22 21:13 -32.47675 -63.29176 32188 ft 379 kts 283°
2026-04-22 21:13 -32.46560 -63.35344 32195 ft 383 kts 285°
2026-04-22 21:14 -32.45371 -63.41474 32186 ft 382 kts 285°
2026-04-22 21:14 -32.44190 -63.47579 32192 ft 381 kts 283°
2026-04-22 21:15 -32.43004 -63.53702 32192 ft 380 kts 284°
2026-04-22 21:15 -32.41873 -63.59801 32188 ft 379 kts 284°
2026-04-22 21:16 -32.40703 -63.65895 32188 ft 380 kts 285°
2026-04-22 21:16 -32.39416 -63.71970 32187 ft 382 kts 284°
2026-04-22 21:17 -32.38270 -63.78037 32183 ft 379 kts 283°
2026-04-22 21:17 -32.37137 -63.84117 32184 ft 379 kts 284°
2026-04-22 21:18 -32.35935 -63.90209 32187 ft 378 kts 286°
2026-04-22 21:18 -32.34708 -63.96281 32186 ft 380 kts 284°
2026-04-22 21:19 -32.33561 -64.02282 32173 ft 384 kts 284°
2026-04-22 21:19 -32.32411 -64.08401 32197 ft 381 kts 284°
2026-04-22 21:20 -32.31227 -64.14495 32183 ft 383 kts 284°
2026-04-22 21:20 -32.30019 -64.20559 32174 ft 383 kts 285°
2026-04-22 21:21 -32.28750 -64.26676 32199 ft 382 kts 284°
2026-04-22 21:21 -32.27606 -64.32823 32196 ft 383 kts 284°
2026-04-22 21:22 -32.26390 -64.38975 32197 ft 384 kts 284°
2026-04-22 21:22 -32.25143 -64.45073 32189 ft 382 kts 285°
2026-04-22 21:23 -32.23906 -64.51135 32186 ft 379 kts 284°
2026-04-22 21:23 -32.22657 -64.57187 32193 ft 380 kts 285°
2026-04-22 21:24 -32.21423 -64.63136 32187 ft 362 kts 286°
2026-04-22 21:24 -32.20307 -64.68911 32224 ft 361 kts 283°
2026-04-22 21:25 -32.19224 -64.74618 32184 ft 356 kts 285°
2026-04-22 21:25 -32.18089 -64.80255 32214 ft 350 kts 284°
2026-04-22 21:26 -32.17533 -64.83074 31933 ft 354 kts 285°
2026-04-22 21:26 -32.16907 -64.85878 31697 ft 354 kts 285°
2026-04-22 21:26 -32.16320 -64.88724 31472 ft 358 kts 284°
2026-04-22 21:26 -32.15757 -64.91589 31205 ft 359 kts 285°
2026-04-22 21:27 -32.15184 -64.94442 30959 ft 354 kts 284°
2026-04-22 21:27 -32.14617 -64.97274 30729 ft 356 kts 284°
2026-04-22 21:27 -32.14050 -65.00098 30503 ft 364 kts 285°
2026-04-22 21:27 -32.13438 -65.02943 30270 ft 365 kts 285°
2026-04-22 21:28 -32.12201 -65.08779 30191 ft 368 kts 285°
2026-04-22 21:28 -32.10977 -65.14611 30186 ft 364 kts 285°
2026-04-22 21:29 -32.09782 -65.20434 30171 ft 365 kts 285°
2026-04-22 21:29 -32.08568 -65.26248 30200 ft 367 kts 285°
2026-04-22 21:30 -32.07587 -65.31113 30193 ft 367 kts 284°
2026-04-22 21:30 -32.06410 -65.36985 30201 ft 368 kts 285°
2026-04-22 21:31 -32.05181 -65.42877 30189 ft 373 kts 284°
2026-04-22 21:31 -32.03950 -65.48710 30198 ft 365 kts 285°
2026-04-22 21:32 -32.02688 -65.54528 30211 ft 370 kts 285°
2026-04-22 21:32 -32.01460 -65.60422 30193 ft 371 kts 284°
2026-04-22 21:33 -32.00305 -65.66340 30194 ft 373 kts 285°
2026-04-22 21:33 -31.99098 -65.72153 30198 ft 366 kts 285°
2026-04-22 21:34 -31.97751 -65.77957 30205 ft 368 kts 285°
2026-04-22 21:34 -31.96674 -65.83896 30199 ft 371 kts 285°
2026-04-22 21:35 -31.95391 -65.89767 30212 ft 368 kts 285°
2026-04-22 21:35 -31.94156 -65.95585 30199 ft 366 kts 285°
2026-04-22 21:36 -31.92939 -66.01293 30210 ft 365 kts 285°
2026-04-22 21:36 -31.91697 -66.07095 30200 ft 365 kts 285°
2026-04-22 21:37 -31.90455 -66.12891 30199 ft 365 kts 285°
2026-04-22 21:37 -31.89211 -66.18688 30193 ft 366 kts 285°
2026-04-22 21:38 -31.87956 -66.24505 30194 ft 366 kts 285°
2026-04-22 21:38 -31.86711 -66.30280 30199 ft 367 kts 285°
2026-04-22 21:39 -31.85451 -66.36106 30191 ft 368 kts 285°
2026-04-22 21:39 -31.84187 -66.41942 30196 ft 369 kts 285°
2026-04-22 21:40 -31.82914 -66.47793 30191 ft 369 kts 285°
2026-04-22 21:40 -31.81639 -66.53653 30196 ft 371 kts 285°
2026-04-22 21:41 -31.80355 -66.59535 30190 ft 371 kts 285°